Location: Unspecified
(0.0000°N, 0.0000°E)
Time: 01:27:19
(UTC+00:00)

PCSat - Visible Passes

Search period start: 13 July 2024 00:00
Search period end: 23 July 2024 00:00
Orbit: 782 x 793 km, 67.1° (Epoch: 12 July)

Date Brightness Start Highest point End Pass type
(mag) Time Alt. Az. Time Alt. Az. Time Alt. Az.
21 Jul 11.5 19:02:19 10° SSE 19:11:48 - NE 19:02:33 11° SSE visible
21 Jul 11.9 20:52:02 17° NNW 20:52:02 17° NNW 20:53:33 10° N visible
22 Jul 11.3 18:33:07 10° ESE 18:34:08 10° ESE 18:35:09 10° E visible
22 Jul 10.4 20:12:03 10° SW 20:17:13 48° WNW 20:22:23 10° N visible
